DLH004 EDDN-EDDF

Flight info

Callsign DLH004
Flight time N/A
Altitude 24000
Route SUKAD1C SUKAD DCT PIWAW T159 SPESA SPESA4C
Aircraft A333/H-SDE3GHIJ2J3J5M1RVWXY/LB2D1

Departure

Time 2026-04-28 17:04
Airport Nuremberg Airport (EDDN)

Arrival

Time N/A
Airport Frankfurt Main Airport (EDDF)
Time Latitude Longitude Altitude Speed Heading
2026-04-28 16:36 49.49554 11.08507 1037 ft 0 kts 52°
2026-04-28 16:54 49.49554 11.08508 1037 ft 0 kts 52°
2026-04-28 16:54 49.49559 11.08516 1038 ft 0 kts 52°
2026-04-28 16:57 49.49560 11.08519 1038 ft 1 kts 52°
2026-04-28 16:58 49.49575 11.08548 1039 ft 5 kts 52°
2026-04-28 16:58 49.49600 11.08608 1040 ft 8 kts 73°
2026-04-28 16:58 49.49591 11.08706 1043 ft 11 kts 102°
2026-04-28 16:58 49.49577 11.08828 1046 ft 14 kts 101°
2026-04-28 16:59 49.49560 11.08992 1049 ft 17 kts 91°
2026-04-28 16:59 49.49539 11.09189 1050 ft 21 kts 102°
2026-04-28 16:59 49.49565 11.09416 1053 ft 8 kts 55°
2026-04-28 16:59 49.49566 11.09418 1052 ft 0 kts 54°
2026-04-28 17:01 49.49571 11.09427 1053 ft 4 kts 53°
2026-04-28 17:01 49.49610 11.09504 1053 ft 13 kts 40°
2026-04-28 17:02 49.49703 11.09480 1053 ft 21 kts 285°
2026-04-28 17:02 49.49714 11.09383 1054 ft 0 kts 278°
2026-04-28 17:03 49.49727 11.09234 1054 ft 47 kts 278°
2026-04-28 17:03 49.49823 11.08292 1039 ft 124 kts 282°
2026-04-28 17:03 49.49972 11.06744 1027 ft 170 kts 278°
2026-04-28 17:04 49.50328 11.02821 1728 ft 190 kts 279°
2026-04-28 17:04 49.50486 11.00667 1871 ft 216 kts 275°
2026-04-28 17:05 49.50998 10.95999 3103 ft 225 kts 281°
2026-04-28 17:05 49.51235 10.93726 4207 ft 214 kts 282°
2026-04-28 17:05 49.51454 10.91587 5340 ft 199 kts 280°
2026-04-28 17:06 49.51840 10.87596 6998 ft 189 kts 279°
2026-04-28 17:06 49.52028 10.85631 7727 ft 189 kts 279°
2026-04-28 17:06 49.52406 10.81690 9111 ft 188 kts 280°
2026-04-28 17:07 49.52597 10.79698 9744 ft 189 kts 280°
2026-04-28 17:07 49.52786 10.77723 10374 ft 189 kts 281°
2026-04-28 17:07 49.52976 10.75737 10981 ft 191 kts 281°
2026-04-28 17:07 49.53166 10.73742 11571 ft 192 kts 281°
2026-04-28 17:08 49.53366 10.71660 11973 ft 204 kts 281°
2026-04-28 17:08 49.53579 10.69418 12331 ft 219 kts 280°
2026-04-28 17:08 49.53804 10.67043 12775 ft 236 kts 280°
2026-04-28 17:08 49.54045 10.64478 13256 ft 252 kts 281°
2026-04-28 17:09 49.54308 10.61694 13761 ft 269 kts 280°
2026-04-28 17:09 49.54579 10.58800 14235 ft 286 kts 280°
2026-04-28 17:09 49.54872 10.55684 14735 ft 302 kts 280°
2026-04-28 17:09 49.55293 10.52522 15504 ft 304 kts 291°